Temperature
17 17 16 16 16 16 16 16 17 17 17 16 17 17 17 17 17 17 17 17 17 17 17 17 17 17 17 17 17 17 17 18 18 18 18 18 18 18 18 18 18 18 18
17 17 16 16 16 16 16 16 16 16 16 16 16 16 16 16 16 17 17 17 17 17 17 17 17 17 17 17 17 17 17 17 17 17 18 18 18 18 18 18 18 18 18
17 17 16 16 16 16 16 16 16 16 16 16 16 16 16 16 16 16 16 16 16 16 16 16 16 16 17 17 17 17 17 17 17 17 17 18 18 18 18 18 18 18 18
17 17 16 16 16 16 16 16 16 16 16 16 16 16 16 16 16 16 16 16 16 16 16 16 16 16 17 17 17 17 17 17 17 17 17 17 18 18 18 18 18 18 18
17 17 16 16 16 16 16 16 16 16 16 16 16 16 16 16 16 16 16 16 16 16 16 16 16 16 17 17 17 17 17 17 17 17 17 17 17 18 18 18 18 18 18
17 16 16 16 16 16 16 16 16 16 16 15 15 15 15 15 15 16 16 16 16 16 16 16 16 16 16 16 17 17 17 17 17 17 17 17 17 17 18 18 18 17 18
17 16 16 16 16 16 16 16 16 16 16 15 15 15 15 15 15 15 15 15 15 16 16 16 16 16 16 16 16 17 17 17 17 17 17 17 17 17 17 17 17 17 17
17 16 16 16 16 16 16 16 15 15 15 15 15 15 15 15 15 15 15 15 15 15 15 16 16 16 16 16 16 16 16 17 17 17 17 17 17 17 17 17 17 17 17
16 16 16 16 16 16 16 15 15 15 15 15 15 15 15 15 15 15 15 15 15 15 15 16 16 16 16 16 16 16 16 16 17 17 17 17 17 17 17 17 17 17 17
17 16 16 16 16 16 16 15 15 15 15 15 15 15 15 15 15 15 15 15 15 15 15 15 16 16 16 16 16 16 16 16 17 16 16 17 17 17 17 17 17 17 17
17 16 16 16 16 16 16 16 15 15 15 15 15 15 15 15 15 15 15 15 15 15 15 15 16 15 16 16 16 16 16 16 16 16 16 16 16 17 17 17 17 17 17
17 17 16 16 16 16 16 16 16 16 15 15 15 15 15 15 15 15 15 15 15 15 15 15 15 15 16 16 16 16 16 16 16 16 16 16 16 16 16 17 17 17 17
17 17 17 16 16 16 16 16 16 16 16 15 15 15 15 15 15 15 15 15 15 15 15 15 15 15 15 15 16 16 16 16 16 16 16 16 16 16 16 16 16 16 17
17 17 17 16 16 16 16 16 16 16 16 15 15 15 15 15 15 15 15 15 15 15 15 15 15 15 15 15 16 16 16 16 16 16 16 16 16 16 16 16 16 16 16
17 17 17 16 16 16 16 16 16 16 16 16 15 15 15 15 15 15 15 15 15 15 15 15 15 15 15 15 15 15 15 15 16 16 16 16 16 16 16 16 16 16 16
17 17 17 16 16 16 16 16 16 16 16 16 16 16 16 15 15 15 15 15 15 15 15 15 15 15 15 15 15 15 15 15 15 15 15 16 16 16 16 16 16 16 16
17 17 17 17 16 16 16 16 16 16 16 16 16 16 16 16 15 15 15 15 15 15 15 15 15 15 15 15 15 15 15 15 15 15 15 15 15 15 16 16 16 16 16
17 17 17 17 16 16 16 16 16 16 16 16 16 16 16 15 15 15 15 15 15 15 15 15 15 15 15 15 15 15 15 15 15 15 15 15 15 15 15 15 15 16 16
17 17 17 17 17 16 16 16 16 16 16 16 16 16 16 15 15 15 15 15 15 15 15 15 15 15 15 15 15 15 14 14 15 15 15 15 15 15 15 15 15 15 15
17 17 17 17 17 16 16 16 16 16 16 16 16 16 15 15 15 15 15 15 15 15 15 15 15 15 15 15 14 14 14 14 14 14 14 14 15 15 15 15 15 15 15
17 17 17 17 17 16 16 16 16 16 16 16 15 15 15 15 15 15 15 15 15 15 15 15 15 15 15 14 14 14 14 14 14 14 14 14 14 14 14 14 15 15 15
17 17 17 17 17 16 16 16 16 16 16 15 15 15 15 15 15 15 15 15 15 15 15 15 15 15 14 14 14 14 14 14 14 14 14 14 14 14 14 14 14 15 15
17 17 17 17 17 16 16 16 16 16 16 16 15 15 15 15 15 15 15 15 15 15 15 15 14 15 14 14 14 14 14 14 13 13 13 13 14 14 14 14 14 14 14
18 17 17 17 17 16 16 16 16 16 16 16 15 15 15 15 15 15 15 15 15 15 15 15 14 14 14 14 14 14 14 14 14 13 13 13 13 14 14 14 14 14 14
18 17 17 17 17 16 16 16 16 16 16 16 15 15 15 15 15 15 15 15 15 15 15 14 14 14 14 14 14 14 14 14 14 14 13 13 13 13 13 13 14 14 14
18 17 17 17 17 16 16 16 16 16 16 16 16 15 15 15 15 15 15 15 15 15 15 15 14 14 14 14 14 14 14 14 14 14 14 14 13 13 13 13 13 13 14
Wind_Speed
0 0 5 7 8 9 10 10 10 10 10 10 10 10 10 9 9 9 9 8 8 8 8 9 9 9 9 8 8 8 8 8 8 7 7 7 7 6 5 5 5 5 5
2 3 6 7 8 9 9 9 9 9 9 9 9 9 9 9 9 8 8 8 8 8 8 8 8 8 8 8 8 8 8 8 8 8 8 7 7 6 6 6 6 5 6
3 4 6 8 8 8 9 8 8 8 8 8 8 8 8 8 8 8 7 8 8 8 8 7 7 8 8 8 8 8 8 8 8 8 8 7 6 6 6 6 6 6 6
5 5 5 8 8 8 8 8 8 7 7 7 7 7 7 7 7 7 7 7 7 8 7 7 7 7 7 7 7 7 8 8 8 8 7 6 6 7 6 6 7 7 6
4 4 5 7 7 7 7 7 7 7 7 7 7 7 7 7 6 6 6 6 6 7 7 7 7 7 7 7 7 8 8 8 8 8 7 6 6 6 7 7 7 6 6
4 4 4 7 7 6 6 7 7 7 7 6 6 6 6 6 6 5 5 6 6 6 6 6 6 7 7 7 8 9 8 8 8 7 6 5 5 6 7 7 7 6 6
3 3 4 6 6 5 6 6 6 6 6 6 6 6 6 5 5 5 5 6 5 6 6 6 6 7 7 7 8 8 8 8 7 6 5 5 5 6 7 7 7 7 7
3 2 3 4 5 5 5 5 5 5 6 6 6 6 5 5 5 5 5 5 5 6 6 6 7 7 8 8 8 8 8 7 6 6 5 5 5 6 6 6 6 6 6
2 2 2 3 3 4 4 4 5 5 6 6 6 6 5 5 6 6 6 5 5 6 6 7 7 8 9 8 8 8 8 8 7 5 4 4 5 6 6 6 6 6 5
2 2 2 2 3 4 4 4 5 6 6 6 6 6 6 6 7 7 6 5 5 6 7 7 8 8 9 9 9 9 9 7 6 5 4 5 6 6 7 7 6 6 5
1 1 2 2 3 3 3 4 6 7 7 7 7 7 7 7 7 7 7 6 6 7 8 8 9 9 9 9 10 10 9 8 7 6 5 5 6 6 7 7 7 7 7
2 1 0 1 2 3 3 5 6 7 7 7 6 6 6 6 7 7 8 8 8 9 9 10 10 10 9 9 9 10 9 9 7 6 6 6 6 7 7 8 8 8 7
3 1 1 1 1 2 2 4 4 5 6 7 6 6 6 7 7 8 8 9 9 10 9 9 9 9 8 8 8 8 9 8 7 7 7 8 8 8 8 9 8 8 8
3 2 1 2 2 2 2 3 3 4 4 5 5 5 5 5 5 6 6 7 8 8 8 8 7 8 9 9 8 8 9 8 8 7 8 9 9 9 9 9 9 9 9
3 2 2 3 2 2 3 2 3 3 4 4 4 4 4 4 3 4 5 6 7 7 7 7 7 7 7 8 8 8 8 9 9 9 8 10 10 10 10 10 10 10 10
4 3 2 3 3 3 2 2 2 3 3 4 4 4 4 4 4 4 4 5 6 7 7 8 7 6 6 7 7 9 9 9 10 10 10 11 12 12 12 13 13 13 12
4 4 3 4 3 3 3 2 3 3 4 4 4 4 5 5 5 5 4 4 5 7 8 8 8 7 6 6 7 8 9 10 10 11 12 12 12 14 15 14 14 14 14
4 4 3 4 4 4 3 3 4 4 5 5 5 5 6 6 6 6 4 3 5 7 7 5 5 5 6 6 6 6 7 8 10 11 12 12 12 12 13 15 15 15 15
5 5 4 4 5 4 4 5 5 6 6 5 6 6 6 6 7 7 5 4 6 6 5 5 4 4 5 6 6 6 6 6 7 10 10 12 13 13 13 13 15 16 15
5 5 5 5 5 5 4 4 4 5 5 6 6 6 6 6 7 8 6 6 6 5 4 5 5 5 4 5 7 7 6 6 7 8 8 10 12 13 14 13 13 13 15
5 5 5 5 4 4 3 3 3 2 2 3 5 6 6 6 7 7 5 5 5 4 4 5 5 6 4 3 4 5 5 6 7 6 7 7 10 12 13 13 13 12 12
6 5 5 5 5 4 3 2 2 2 2 2 3 6 7 6 6 6 5 4 4 4 5 4 4 3 2 3 3 3 3 4 5 6 5 6 7 9 10 12 12 12 12
6 6 6 5 5 4 4 3 4 4 3 3 3 3 5 6 6 6 6 5 4 4 4 3 3 4 2 2 3 3 3 1 1 4 5 5 5 5 7 9 11 11 11
7 6 6 5 5 4 4 4 4 3 2 0 0 1 4 6 5 6 6 5 4 3 3 2 2 2 3 2 2 3 2 3 3 1 3 3 5 5 6 7 8 10 11
7 6 6 6 4 4 4 5 5 3 2 1 2 3 3 4 5 5 5 5 4 3 2 2 2 2 2 2 2 2 3 3 2 3 0 2 3 4 4 5 7 8 10
6 6 6 6 5 4 5 4 5 5 4 4 3 2 2 2 3 5 5 4 4 3 2 2 2 2 2 2 2 2 2 2 2 2 2 0 1 3 3 4 5 7 9
Wind_Direction
296 185 111 102 100 95 90 86 83 84 85 85 84 84 84 83 83 80 78 76 76 77 77 81 83 84 86 87 85 85 88 88 86 82 80 77 76 79 81 82 86 89 88
152 129 119 109 103 98 93 88 84 83 83 83 83 83 83 81 79 79 77 74 74 75 76 78 81 80 81 85 86 84 84 85 81 75 68 63 62 68 75 82 86 90 90
122 113 113 108 103 98 92 88 85 84 83 84 84 81 81 81 81 78 78 75 73 71 71 73 77 78 78 82 83 80 79 78 76 73 60 47 50 65 78 85 90 90 89
124 120 117 110 104 97 91 88 87 86 86 85 84 83 82 81 81 77 76 75 74 72 70 70 73 76 75 76 77 77 78 75 72 68 55 46 49 68 77 83 87 87 86
116 118 121 112 106 98 90 84 84 86 88 87 84 83 80 79 76 74 76 77 74 73 71 68 70 73 70 71 73 77 79 74 68 62 55 50 52 67 75 77 78 82 82
118 123 127 115 106 98 90 86 82 81 81 81 80 78 74 74 74 73 76 78 74 72 69 66 68 69 68 67 72 76 76 73 67 61 54 51 55 71 77 77 76 75 74
132 127 123 115 105 98 92 86 81 77 74 74 76 73 68 67 66 66 70 74 73 71 70 67 66 67 69 72 75 78 77 75 70 62 51 49 60 70 74 74 71 68 70
131 111 103 108 104 96 91 85 80 75 70 69 68 64 61 59 62 62 60 66 70 71 72 70 67 67 73 78 74 75 73 71 67 61 53 53 60 70 76 73 71 66 65
102 82 59 53 63 69 68 66 69 67 64 60 54 50 50 51 57 56 57 67 72 73 74 73 69 72 73 71 70 70 71 68 61 54 53 52 59 67 74 74 68 63 61
77 57 46 34 42 41 31 36 48 50 51 46 41 37 40 44 45 45 46 57 72 75 75 73 74 74 72 68 66 67 64 61 55 49 44 51 58 66 68 68 63 56 52
106 37 40 19 22 26 20 27 38 42 39 37 37 36 39 38 34 32 37 52 66 75 76 73 70 71 67 62 64 65 58 52 48 44 40 50 58 61 64 64 59 54 51
186 211 101 26 25 30 32 36 37 40 39 40 41 39 42 42 37 42 43 53 61 66 68 68 67 64 64 59 56 58 55 51 47 41 40 46 52 59 64 63 57 53 51
183 194 153 127 73 60 40 33 39 38 35 36 39 46 55 51 43 45 46 49 55 58 59 59 63 62 65 63 56 54 53 53 44 39 39 44 50 58 63 61 56 51 49
153 171 162 143 109 77 69 48 43 40 36 34 37 48 60 57 48 47 51 53 58 62 63 61 65 64 63 62 61 56 53 53 46 40 42 46 49 55 58 57 55 51 50
155 164 151 128 120 92 72 48 48 42 44 46 49 53 70 75 63 58 57 59 62 68 71 69 67 65 60 56 56 58 55 52 48 43 43 50 50 51 51 52 53 53 52
161 160 136 125 125 106 94 76 54 51 58 59 50 55 80 93 89 78 69 64 66 72 77 77 74 71 62 61 55 55 57 54 50 47 46 46 48 50 50 51 52 54 54
162 154 147 143 119 111 103 82 71 64 68 58 49 60 80 94 97 92 80 69 70 81 84 79 73 70 66 62 54 50 53 51 51 48 47 46 46 49 51 52 51 51 51
149 142 148 135 119 112 99 81 71 67 63 55 58 66 76 89 101 97 88 77 83 84 83 80 71 71 64 62 57 47 47 49 48 50 49 46 45 44 45 49 50 48 47
154 145 133 118 121 114 96 81 73 65 56 53 61 65 73 84 97 101 95 90 93 86 77 86 71 79 81 75 69 54 45 42 42 48 46 44 44 43 42 42 45 45 43
143 134 125 115 113 109 93 78 62 53 44 47 51 56 72 83 94 100 96 91 95 87 76 81 84 73 80 84 79 63 48 42 43 40 39 42 44 45 44 42 39 37 39
137 136 137 132 130 124 106 96 83 59 27 28 37 49 65 84 93 97 97 90 90 93 97 98 96 84 72 74 81 60 40 41 45 36 34 39 40 42 44 42 39 36 32
163 161 151 147 150 149 131 120 113 106 71 41 30 41 49 72 87 98 100 98 96 98 94 92 98 100 69 46 90 87 44 17 23 29 29 37 34 37 39 38 37 35 32
177 176 167 161 155 146 128 103 82 63 46 34 26 26 24 54 77 91 100 104 103 109 119 112 109 112 111 47 61 117 120 150 1 3 20 30 28 32 30 32 32 30 29
190 177 161 156 149 144 138 134 130 127 124 134 32 37 34 49 68 86 97 102 104 105 119 128 115 111 121 109 60 58 96 140 134 47 355 10 24 31 23 26 23 25 27
182 170 158 148 148 146 145 146 133 122 125 101 69 65 48 38 52 75 93 99 100 104 120 118 109 107 117 135 133 111 84 69 87 128 143 338 3 8 12 14 17 20 22
171 161 152 151 156 152 149 147 148 145 136 119 99 86 58 38 36 54 79 89 98 101 112 119 116 114 109 114 120 128 138 138 148 131 143 153 335 329 348 3 11 10 16
Height
1534 1534 1534 1534 1534 1534 1534 1534 1534 1535 1535 1535 1535 1535 1535 1535 1535 1536 1536 1536 1536 1536 1536 1536 1536 1537 1537 1538 1538 1538 1539 1539 1539 1539 1540 1540 1540 1540 1540 1541 1541 1541 1542
1534 1535 1535 1535 1535 1535 1535 1535 1535 1535 1536 1536 1536 1536 1536 1536 1536 1537 1537 1537 1537 1537 1537 1537 1538 1538 1538 1539 1539 1539 1540 1540 1540 1540 1541 1541 1541 1541 1541 1541 1542 1542 1542
1535 1536 1536 1536 1536 1537 1537 1537 1536 1537 1537 1537 1537 1537 1537 1537 1537 1537 1538 1538 1538 1538 1538 1538 1539 1539 1539 1540 1540 1541 1541 1541 1541 1542 1542 1542 1542 1542 1542 1542 1543 1543 1543
1536 1537 1537 1537 1538 1538 1538 1538 1538 1537 1538 1538 1538 1538 1538 1538 1538 1538 1539 1539 1539 1539 1539 1539 1540 1540 1540 1541 1541 1542 1542 1542 1542 1543 1543 1543 1543 1543 1543 1543 1544 1544 1544
1538 1538 1538 1539 1539 1539 1539 1539 1539 1539 1539 1539 1539 1539 1539 1539 1539 1539 1539 1539 1540 1540 1540 1540 1540 1541 1541 1542 1542 1543 1543 1543 1543 1544 1544 1544 1544 1544 1544 1544 1544 1544 1544
1539 1540 1540 1540 1541 1541 1541 1541 1541 1541 1541 1540 1540 1540 1540 1540 1540 1540 1540 1540 1540 1541 1541 1541 1541 1542 1542 1543 1543 1543 1544 1544 1544 1545 1545 1545 1545 1545 1545 1545 1546 1546 1545
1541 1541 1542 1542 1542 1542 1542 1542 1542 1542 1542 1542 1542 1542 1542 1541 1541 1541 1542 1541 1542 1542 1542 1542 1542 1543 1543 1544 1544 1544 1545 1545 1545 1546 1546 1546 1546 1546 1546 1546 1546 1546 1546
1543 1543 1544 1544 1544 1544 1544 1544 1544 1544 1544 1544 1544 1543 1543 1543 1543 1543 1543 1543 1543 1543 1543 1543 1544 1544 1544 1545 1545 1546 1546 1546 1547 1547 1547 1547 1547 1547 1547 1547 1547 1547 1546
1545 1545 1545 1546 1546 1546 1546 1546 1546 1546 1546 1546 1545 1545 1545 1544 1544 1544 1544 1544 1544 1545 1545 1545 1545 1545 1546 1546 1547 1547 1547 1548 1548 1548 1548 1548 1548 1548 1548 1548 1547 1547 1547
1546 1547 1547 1548 1548 1548 1548 1548 1548 1548 1548 1548 1547 1547 1547 1546 1546 1546 1546 1546 1546 1546 1546 1546 1546 1546 1547 1547 1548 1548 1549 1549 1549 1549 1549 1549 1549 1549 1548 1548 1548 1547 1547
1548 1548 1549 1549 1550 1550 1550 1550 1550 1550 1550 1550 1549 1549 1548 1548 1548 1548 1547 1547 1547 1547 1548 1548 1548 1548 1548 1548 1549 1549 1550 1550 1550 1550 1550 1550 1550 1549 1549 1549 1549 1548 1547
1549 1550 1550 1551 1551 1551 1552 1552 1552 1552 1552 1552 1551 1551 1550 1550 1550 1549 1549 1549 1549 1549 1549 1549 1549 1550 1550 1550 1550 1550 1551 1551 1551 1551 1551 1551 1550 1550 1550 1550 1549 1549 1548
1550 1550 1551 1552 1553 1553 1553 1553 1553 1553 1553 1553 1553 1553 1552 1552 1551 1551 1551 1551 1551 1551 1551 1551 1551 1551 1551 1551 1551 1552 1552 1552 1552 1552 1552 1552 1551 1551 1551 1550 1550 1549 1549
1550 1551 1552 1553 1554 1554 1555 1555 1555 1555 1555 1555 1555 1554 1554 1554 1553 1553 1552 1552 1552 1552 1552 1553 1553 1553 1553 1553 1553 1553 1553 1554 1554 1553 1553 1553 1552 1552 1552 1551 1551 1550 1549
1551 1552 1553 1554 1555 1556 1556 1556 1556 1556 1556 1556 1556 1556 1556 1555 1555 1554 1554 1554 1554 1554 1554 1554 1554 1554 1554 1554 1554 1555 1555 1555 1555 1555 1554 1554 1554 1553 1553 1552 1551 1550 1549
1552 1553 1554 1555 1556 1557 1557 1557 1557 1557 1557 1557 1557 1557 1557 1557 1556 1556 1556 1556 1556 1556 1556 1556 1556 1556 1556 1556 1556 1556 1556 1556 1556 1556 1556 1556 1555 1555 1554 1553 1552 1551 1550
1553 1554 1556 1556 1557 1558 1558 1558 1558 1558 1558 1559 1559 1559 1558 1558 1558 1558 1557 1557 1557 1558 1558 1558 1558 1557 1557 1558 1558 1558 1558 1558 1557 1557 1557 1557 1557 1556 1556 1555 1554 1553 1552
1554 1555 1556 1557 1558 1559 1559 1559 1559 1559 1559 1560 1560 1560 1560 1560 1559 1559 1559 1559 1559 1560 1560 1560 1559 1559 1559 1559 1559 1559 1559 1559 1559 1559 1559 1558 1558 1558 1557 1556 1555 1555 1554
1555 1556 1557 1558 1559 1560 1560 1560 1560 1560 1560 1561 1561 1561 1561 1561 1561 1561 1561 1561 1561 1561 1561 1561 1561 1561 1561 1561 1561 1561 1561 1561 1561 1561 1560 1560 1560 1559 1559 1558 1557 1556 1555
1556 1557 1558 1559 1560 1560 1561 1561 1561 1561 1562 1562 1562 1562 1562 1562 1562 1562 1562 1562 1562 1563 1563 1563 1563 1563 1563 1563 1563 1563 1563 1563 1563 1563 1562 1562 1562 1561 1560 1559 1559 1558 1557
1556 1557 1558 1559 1560 1561 1562 1562 1562 1562 1562 1563 1563 1563 1563 1563 1563 1563 1563 1563 1564 1564 1564 1564 1565 1565 1565 1565 1565 1565 1565 1566 1565 1565 1564 1564 1563 1563 1562 1561 1560 1559 1558
1555 1557 1558 1559 1561 1562 1562 1563 1563 1563 1563 1564 1564 1564 1564 1564 1564 1564 1564 1565 1565 1565 1565 1566 1566 1566 1566 1566 1567 1566 1567 1569 1567 1567 1566 1566 1565 1565 1564 1563 1562 1561 1560
1555 1556 1558 1559 1561 1562 1563 1563 1564 1564 1564 1564 1565 1565 1565 1565 1565 1565 1566 1566 1566 1566 1567 1567 1567 1567 1567 1568 1568 1569 1568 1568 1569 1569 1568 1568 1567 1566 1565 1564 1563 1562 1561
1554 1556 1558 1559 1561 1562 1563 1564 1564 1564 1565 1565 1565 1566 1566 1566 1566 1567 1567 1567 1567 1567 1568 1568 1568 1569 1569 1569 1569 1569 1570 1569 1569 1570 1570 1569 1568 1568 1567 1566 1565 1563 1562
1553 1555 1557 1559 1560 1562 1563 1564 1565 1565 1565 1566 1566 1567 1567 1567 1568 1568 1568 1568 1568 1569 1569 1569 1569 1569 1569 1569 1570 1570 1570 1570 1570 1570 1569 1569 1569 1569 1568 1567 1566 1564 1563
1552 1554 1556 1558 1560 1562 1563 1564 1565 1565 1566 1566 1567 1567 1568 1568 1569 1569 1569 1569 1570 1570 1570 1570 1570 1570 1570 1570 1570 1570 1570 1570 1570 1570 1569 1569 1569 1569 1568 1567 1566 1565 1564